Location: Glencliff
(36.1226°N, 86.7183°W)
Time: 20:17:23
(UTC+00:00)

SL-24 R/B - Pass Details

Date: 25 August 2019
Orbit: 625 x 1075 km, 98.0° (Epoch: 22 October)

Event Time Altitude Azimuth Distance (km) Brightness Sun altitude
Exits shadow 02:27:10 66° 159° (SSE) 740 4.1 -23.1°
Maximum altitude 02:27:48 86° 78° (ENE) 677 4.1 -23.3°
Drops below altitude 10° 02:32:13 10° 349° (NNW) 2,039 7.3 -24.0°
Sets 02:34:21 0° 349° (NNW) 2,930 8.2 -24.3°
